[Iaude] MPEC R29: 2023 RK [a=2.33,e=0.57,i=1.8,H=25.9]

mpec at marsden.cfa.harvard.edu mpec at marsden.cfa.harvard.edu
Wed Sep 6 20:28:58 EDT 2023


M.P.E.C. 2023-R29                             Issued 2023 September 7, 00:27 UT

     The Minor Planet Electronic Circulars contain information on unusual
         minor planets, routine data on comets and natural satellites,
         and occasional editorial announcements.  They are published
    on behalf of Division F of the International Astronomical Union by the
          Minor Planet Center, Smithsonian Astrophysical Observatory,
                          Cambridge, MA 02138, U.S.A.
			  
             Prepared using the Tamkin Foundation Computer Network

                              MPC at CFA.HARVARD.EDU
            URL https://www.minorplanetcenter.net/    ISSN 1523-6714

                                    2023 RK                                     


Observations:
     K23R00K  C2023 09 05.45618623 48 39.890-01 07 12.78         20.75GVER029F51
     K23R00K  C2023 09 05.46864623 48 50.639-01 05 24.38         19.84GVER029F51
     K23R00K  C2023 09 05.48111623 49 01.346-01 03 36.43         20.37GVER029F51
     K23R00K  C2023 09 05.49355523 49 12.134-01 01 47.46         21.32GVER029F51
     K23R00K*1C2023 09 06.33534100 02 59.694+01 06 57.17         20.88GVER029G96
     K23R00K 1C2023 09 06.34095000 03 05.198+01 07 51.60         20.28GVER029G96
     K23R00K 1C2023 09 06.34654200 03 10.609+01 08 46.07         19.43GVER029G96
     K23R00K 1C2023 09 06.35212800 03 16.063+01 09 40.39         19.84GVER029G96
     K23R00K 1C2023 09 06.46255900 05 05.032+01 27 42.30         19.96GVER029G96
     K23R00K 1C2023 09 06.46271900 05 05.215+01 27 44.89         20.04GVER029G96
     K23R00K 1C2023 09 06.46304100 05 05.532+01 27 47.45         19.78GVER029G96
     K23R00K 1C2023 09 06.49205700 05 34.814+01 32 34.01         20.64GVER029G96
     K23R00K 1C2023 09 06.49221700 05 34.998+01 32 34.87         20.75GVER029G96
     K23R00K 1C2023 09 06.49237800 05 35.146+01 32 36.67         20.65GVER029G96
     K23R00K 1C2023 09 06.49253900 05 35.293+01 32 38.54         20.99GVER029G96
     K23R00K KC2023 09 06.88101500 12 49.40 +02 37 46.3          19.3 GVER029L01
     K23R00K KC2023 09 06.88257900 12 51.10 +02 38 03.2          19.5 GVER029L01
     K23R00K KC2023 09 06.88414200 12 52.78 +02 38 19.8          19.5 GVER029L01
     K23R00K KC2023 09 06.88570100 12 54.44 +02 38 36.0          19.4 GVER029L01
     K23R00K KC2023 09 06.88724400 12 56.08 +02 38 51.7          19.4 GVER029L01
     K23R00K KB2023 09 06.92138900 13 34.38 +02 44 47.9          19.8 GVER029I93
     K23R00K KB2023 09 06.92732500 13 40.68 +02 45 50.1          20.2 GVER029I93
     K23R00K KC2023 09 06.92910100 13 41.14 +02 46 06.1          20.2 GVER029K51
     K23R00K KB2023 09 06.93325400 13 47.14 +02 46 52.4          19.8 GVER029I93
     K23R00K KC2023 09 06.93451800 13 46.93 +02 47 03.0          20.9 GVER029K51
     K23R00K KC2023 09 06.94047400 13 53.34 +02 48 05.2          20.7 GVER029K51
     K23R00K KC2023 09 06.95225000 14 06.19 +02 50 13.1                VER029104
     K23R00K KC2023 09 06.96145400 14 16.06 +02 51 49.7          20.2 GVER029104

Observer details:
104 San Marcello Pistoiese.  Observers P. Bacci, M. Maestripieri.  Measurers
    P. Bacci, L. Tesi, G. Fagioli.  0.60-m F4 Reflector + CCD.
F51 Pan-STARRS 1, Haleakala.  Observers J. Bulger, K. Chambers, T. Lowe, P.
    Minguez, A. Schultz, I. Smith.  Measurers S. Chastel, J. Fairlamb, M.
    Huber, Y. Ramanjooloo, R. Wainscoat, R. Weryk.  1.8-m Ritchey-Chretien +
    CCD.
G96 Mt. Lemmon Survey.  Observer A. R. Gibbs.  Measurers E. J. Christensen, D.
    Fay, J. B. Fazekas, D. C. Fuls, A. R. Gibbs, A. D. Grauer, H. Groeller, J.
    K. Hogan, R. A. Kowalski, S. M. Larson, G. J. Leonard, D. Rankin, R. L.
    Seaman, A. Serrano, F. C. Shelly, K. W. Wierzchos.  1.5-m reflector + 10K
    CCD.
I93 St Pardon de Conques.  Observer F. Losse.  0.40-m f/3.7 reflector + CMO.
K51 Osservatorio del Celado, Castello Tesino.  Observer M. Campestrin.  0.80-m
    f/4 reflector + CCD.
L01 Visnjan Observatory, Tican.  Observers K. Korlevic, I. Lyon.  Measurer K.
    Korlevic.  1.0-m f/2.9 reflector + CCD.

Orbital elements:
2023 RK                                                  Earth MOID = 0.0102 AU
Epoch 2023 Sept. 13.0 TT = JDT 2460200.5                Veres                   
M 353.97959              (2000.0)            P               Q                  
n   0.27791601     Peri.   35.20018     +0.95076787     -0.30976916             
a   2.3255571      Node   342.83817     +0.27675744     +0.86197652             
e   0.5741871      Incl.    1.77485     +0.13944809     +0.40129734             
P   3.55           H   25.94          G   0.15           U   8                  
Residuals in seconds of arc
230905 F51  0.3-  0.4-    230906 G96  0.1-  0.2+    230906 I93  0.3+  0.5-
230905 F51  0.2+  0.1-    230906 G96  0.1-  0.3+    230906 I93  1.1-  0.4-
230905 F51  0.3-  0.5-    230906 G96  0.2+  0.4-    230906 K51  0.1-  0.4-
230905 F51  0.5+  0.1+    230906 G96  0.1-  0.2-    230906 I93  0.0   0.1-
230906 G96  0.0   0.1+    230906 G96  0.3-  0.1+    230906 K51  0.3-  0.1-
230906 G96  0.6+  0.1-    230906 L01  0.5-  0.5-    230906 K51  0.2+  0.3-
230906 G96  0.0   0.0     230906 L01  0.2-  0.1+    230906 104  0.3+  0.2-
230906 G96  0.2+  0.1-    230906 L01  0.1-  0.4+    230906 104  0.7+  0.1-
230906 G96  0.4-  0.2-    230906 L01  0.3-  0.4+
230906 G96  0.0   0.8+    230906 L01  0.5-  0.0

Ephemeris:
2023 RK                  a,e,i = 2.33, 0.57, 2                   q = 0.9903
Date    TT    R. A. (2000) Decl.     Delta      r    Elong.  Phase     V
2023 08 08    21 38 06.0 -18 58 08   0.2163  1.2290   172.7     6.0    23.5
...
2023 08 23    22 07 18.0 -15 47 45   0.1201  1.1313   175.9     3.7    22.0
...
2023 08 31    22 48 21.0 -10 15 30   0.07718 1.0867   176.5     3.3    20.9
...
2023 09 06    23 57 18.4 +00 15 09   0.05156 1.0577   163.3    15.9    20.5
2023 09 07    00 14 55.2 +03 00 25   0.04837 1.0533   159.2    19.9    20.5
2023 09 08    00 34 52.4 +06 05 22   0.04565 1.0490   154.3    24.6    20.5
...
2023 09 14    03 16 18.1 +25 44 27   0.04271 1.0262   116.9    61.0    21.3
...
2023 09 22    06 01 48.1 +32 08 12   0.06849 1.0040    88.1    88.0    23.2
...
2023 10 07    07 36 04.2 +29 39 22   0.1372  0.9907    82.3    89.8    24.8

M. P. C. Staff               (C) Copyright 2023 MPC           M.P.E.C. 2023-R29





More information about the Iaude mailing list